#Datum;Uhrzeit;WR;Pac;DaySum;Status;WR;Pac;DaySum;Status;Pdc1;Udc;Temp;WR;Pac;DaySum;Status;Pdc1;Udc;Temp;WR;Pac;DaySum;Status;Pdc1;Udc;Temp;WR;Pac;DaySum;Status;Pdc1;Pdc2;Udc1;Udc2;Temp;WR;Pac;DaySum;Status;Pdc1;Pdc2;Udc1;Udc2;Temp;WR;Pac;DaySum;Status;Pdc1;Udc;Temp;WR;Pac;DaySum;Status;Pdc1;Udc;Temp;WR;Pac;DaySum;Status;Pdc1;Udc;Temp
10.09.21;23:55:00;1;358;9627;0;2;0;29102;0;0;0;0;3;0;18760;0;0;0;0;4;0;27762;0;0;0;0;5;0;64449;0;0;0;0;0;0;6;0;48161;0;0;0;0;0;0;7;0;39188;0;0;0;0;8;0;38855;0;0;0;0;9;0;21299;0;0;0;0
10.09.21;23:50:00;1;377;9596;0;2;0;29102;0;0;0;0;3;0;18760;0;0;0;0;4;0;27762;0;0;0;0;5;0;64449;0;0;0;0;0;0;6;0;48161;0;0;0;0;0;0;7;0;39188;0;0;0;0;8;0;38855;0;0;0;0;9;0;21299;0;0;0;0
10.09.21;23:45:00;1;321;9566;0;2;0;29102;0;0;0;0;3;0;18760;0;0;0;0;4;0;27762;0;0;0;0;5;0;64449;0;0;0;0;0;0;6;0;48161;0;0;0;0;0;0;7;0;39188;0;0;0;0;8;0;38855;0;0;0;0;9;0;21299;0;0;0;0
10.09.21;23:40:00;1;289;9539;0;2;0;29102;0;0;0;0;3;0;18760;0;0;0;0;4;0;27762;0;0;0;0;5;0;64449;0;0;0;0;0;0;6;0;48161;0;0;0;0;0;0;7;0;39188;0;0;0;0;8;0;38855;0;0;0;0;9;0;21299;0;0;0;0
10.09.21;23:35:00;1;289;9515;0;2;0;29102;0;0;0;0;3;0;18760;0;0;0;0;4;0;27762;0;0;0;0;5;0;64449;0;0;0;0;0;0;6;0;48161;0;0;0;0;0;0;7;0;39188;0;0;0;0;8;0;38855;0;0;0;0;9;0;21299;0;0;0;0
10.09.21;23:30:00;1;346;9489;0;2;0;29102;0;0;0;0;3;0;18760;0;0;0;0;4;0;27762;0;0;0;0;5;0;64449;0;0;0;0;0;0;6;0;48161;0;0;0;0;0;0;7;0;39188;0;0;0;0;8;0;38855;0;0;0;0;9;0;21299;0;0;0;0
10.09.21;23:25:00;1;342;9460;0;2;0;29102;0;0;0;0;3;0;18760;0;0;0;0;4;0;27762;0;0;0;0;5;0;64449;0;0;0;0;0;0;6;0;48161;0;0;0;0;0;0;7;0;39188;0;0;0;0;8;0;38855;0;0;0;0;9;0;21299;0;0;0;0
10.09.21;23:20:00;1;246;9437;0;2;0;29102;0;0;0;0;3;0;18760;0;0;0;0;4;0;27762;0;0;0;0;5;0;64449;0;0;0;0;0;0;6;0;48161;0;0;0;0;0;0;7;0;39188;0;0;0;0;8;0;38855;0;0;0;0;9;0;21299;0;0;0;0
10.09.21;23:15:00;1;246;9416;0;2;0;29102;0;0;0;0;3;0;18760;0;0;0;0;4;0;27762;0;0;0;0;5;0;64449;0;0;0;0;0;0;6;0;48161;0;0;0;0;0;0;7;0;39188;0;0;0;0;8;0;38855;0;0;0;0;9;0;21299;0;0;0;0
10.09.21;23:10:00;1;253;9396;0;2;0;29102;0;0;0;0;3;0;18760;0;0;0;0;4;0;27762;0;0;0;0;5;0;64449;0;0;0;0;0;0;6;0;48161;0;0;0;0;0;0;7;0;39188;0;0;0;0;8;0;38855;0;0;0;0;9;0;21299;0;0;0;0
10.09.21;23:05:00;1;296;9374;0;2;0;29102;0;0;0;0;3;0;18760;0;0;0;0;4;0;27762;0;0;0;0;5;0;64449;0;0;0;0;0;0;6;0;48161;0;0;0;0;0;0;7;0;39188;0;0;0;0;8;0;38855;0;0;0;0;9;0;21299;0;0;0;0
10.09.21;23:00:00;1;333;9349;0;2;0;29102;0;0;0;0;3;0;18760;0;0;0;0;4;0;27762;0;0;0;0;5;0;64449;0;0;0;0;0;0;6;0;48161;0;0;0;0;0;0;7;0;39188;0;0;0;0;8;0;38855;0;0;0;0;9;0;21299;0;0;0;0
10.09.21;22:55:00;1;245;9321;0;2;0;29102;0;0;0;0;3;0;18760;0;0;0;0;4;0;27762;0;0;0;0;5;0;64449;2;0;0;0;0;0;6;0;48161;2;0;0;0;0;0;7;0;39188;0;0;0;0;8;0;38855;0;0;0;0;9;0;21299;0;0;0;0
10.09.21;22:50:00;1;308;9300;0;2;0;29102;0;0;0;0;3;0;18760;0;0;0;0;4;0;27762;0;0;0;0;5;0;64449;2;0;0;0;0;0;6;0;48161;2;0;0;0;0;0;7;0;39188;0;0;0;0;8;0;38855;0;0;0;0;9;0;21299;0;0;0;0
10.09.21;22:45:00;1;307;9274;0;2;0;29102;0;0;0;0;3;0;18760;0;0;0;0;4;0;27762;0;0;0;0;5;0;64449;2;0;0;0;0;0;6;0;48161;2;0;0;0;0;0;7;0;39188;0;0;0;0;8;0;38855;0;0;0;0;9;0;21299;0;0;0;0
10.09.21;22:40:00;1;302;9248;0;2;0;29102;0;0;0;0;3;0;18760;0;0;0;0;4;0;27762;0;0;0;0;5;0;64449;2;0;0;0;0;0;6;0;48161;2;0;0;0;0;0;7;0;39188;0;0;0;0;8;0;38855;0;0;0;0;9;0;21299;0;0;0;0
10.09.21;22:35:00;1;286;9223;0;2;0;29102;0;0;0;0;3;0;18760;0;0;0;0;4;0;27762;0;0;0;0;5;0;64449;2;0;0;0;0;0;6;0;48161;2;0;0;0;0;0;7;0;39188;0;0;0;0;8;0;38855;0;0;0;0;9;0;21299;0;0;0;0
10.09.21;22:30:00;1;343;9199;0;2;0;29102;0;0;0;0;3;0;18760;0;0;0;0;4;0;27762;0;0;0;0;5;0;64449;2;0;0;0;0;0;6;0;48161;2;0;0;0;0;0;7;0;39188;0;0;0;0;8;0;38855;0;0;0;0;9;0;21299;0;0;0;0
10.09.21;22:25:00;1;298;9170;0;2;0;29102;0;0;0;0;3;0;18760;0;0;0;0;4;0;27762;0;0;0;0;5;0;64449;2;0;0;0;0;0;6;0;48161;2;0;0;0;0;0;7;0;39188;0;0;0;0;8;0;38855;0;0;0;0;9;0;21299;0;0;0;0
10.09.21;22:20:00;1;288;9145;0;2;0;29102;0;0;0;0;3;0;18760;0;0;0;0;4;0;27762;0;0;0;0;5;0;64449;2;0;0;0;0;0;6;0;48161;2;0;0;0;0;0;7;0;39188;0;0;0;0;8;0;38855;0;0;0;0;9;0;21299;0;0;0;0
10.09.21;22:15:00;1;289;9121;0;2;0;29102;0;0;0;0;3;0;18760;0;0;0;0;4;0;27762;0;0;0;0;5;0;64449;2;0;0;0;0;0;6;0;48161;2;0;0;0;0;0;7;0;39188;0;0;0;0;8;0;38855;0;0;0;0;9;0;21299;0;0;0;0
10.09.21;22:10:00;1;280;9097;0;2;0;29102;0;0;0;0;3;0;18760;0;0;0;0;4;0;27762;0;0;0;0;5;0;64449;2;0;0;0;0;0;6;0;48161;2;0;0;0;0;0;7;0;39188;0;0;0;0;8;0;38855;0;0;0;0;9;0;21299;0;0;0;0
10.09.21;22:05:00;1;276;9075;0;2;0;29102;0;0;0;0;3;0;18760;0;0;0;0;4;0;27762;0;0;0;0;5;0;64449;2;0;0;0;0;0;6;0;48161;2;0;0;0;0;0;7;0;39188;0;0;0;0;8;0;38855;0;0;0;0;9;0;21299;0;0;0;0
10.09.21;22:00:00;1;344;9052;0;2;0;29102;0;0;0;0;3;0;18760;0;0;0;0;4;0;27762;0;0;0;0;5;0;64449;2;0;0;0;0;0;6;0;48161;2;0;0;0;0;0;7;0;39188;0;0;0;0;8;0;38855;0;0;0;0;9;0;21299;0;0;0;0
10.09.21;21:55:00;1;362;9024;0;2;0;29102;0;0;0;0;3;0;18760;0;0;0;0;4;0;27762;0;0;0;0;5;0;64449;2;0;0;0;0;0;6;0;48161;2;0;0;0;0;0;7;0;39188;0;0;0;0;8;0;38855;0;0;0;0;9;0;21299;0;0;0;0
10.09.21;21:50:00;1;358;8993;0;2;0;29102;0;0;0;0;3;0;18760;0;0;0;0;4;0;27762;0;0;0;0;5;0;64449;2;0;0;0;0;0;6;0;48161;2;0;0;0;0;0;7;0;39188;0;0;0;0;8;0;38855;0;0;0;0;9;0;21299;0;0;0;0
10.09.21;21:45:00;1;295;8965;0;2;0;29102;0;0;0;0;3;0;18760;0;0;0;0;4;0;27762;0;0;0;0;5;0;64449;2;0;0;0;0;0;6;0;48161;2;0;0;0;0;0;7;0;39188;0;0;0;0;8;0;38855;0;0;0;0;9;0;21299;0;0;0;0
10.09.21;21:40:00;1;341;8941;0;2;0;29102;0;0;0;0;3;0;18760;0;0;0;0;4;0;27762;0;0;0;0;5;0;64449;2;0;0;0;0;0;6;0;48161;2;0;0;0;0;0;7;0;39188;0;0;0;0;8;0;38855;0;0;0;0;9;0;21299;0;0;0;0
10.09.21;21:35:00;1;307;8912;0;2;0;29102;0;0;0;0;3;0;18760;0;0;0;0;4;0;27762;0;0;0;0;5;0;64449;2;0;0;0;0;0;6;0;48161;2;0;0;0;0;0;7;0;39188;0;0;0;0;8;0;38855;0;0;0;0;9;0;21299;0;0;0;0
10.09.21;21:30:00;1;337;8886;0;2;0;29102;0;0;0;0;3;0;18760;0;0;0;0;4;0;27762;0;0;0;0;5;0;64449;2;0;0;0;0;0;6;0;48161;2;0;0;0;0;0;7;0;39188;0;0;0;0;8;0;38855;0;0;0;0;9;0;21299;0;0;0;0
10.09.21;21:25:00;1;337;8858;0;2;0;29102;0;0;0;0;3;0;18760;0;0;0;0;4;0;27762;0;0;0;0;5;0;64449;2;0;0;0;0;0;6;0;48161;2;0;0;0;0;0;7;0;39188;0;0;0;0;8;0;38855;0;0;0;0;9;0;21299;0;0;0;0
10.09.21;21:20:00;1;285;8831;0;2;0;29102;0;0;0;0;3;0;18760;0;0;0;0;4;0;27762;0;0;0;0;5;0;64449;2;0;0;0;0;0;6;0;48161;2;0;0;0;0;0;7;0;39188;0;0;0;0;8;0;38855;0;0;0;0;9;0;21299;0;0;0;0
10.09.21;21:15:00;1;286;8807;0;2;0;29102;0;0;0;0;3;0;18760;0;0;0;0;4;0;27762;0;0;0;0;5;0;64449;2;0;0;0;0;0;6;0;48161;2;0;0;0;0;0;7;0;39188;0;0;0;0;8;0;38855;0;0;0;0;9;0;21299;0;0;0;0
10.09.21;21:10:00;1;287;8783;0;2;0;29102;0;0;0;0;3;0;18760;0;0;0;0;4;0;27762;0;0;0;0;5;0;64449;2;0;0;0;0;0;6;0;48161;2;0;0;0;0;0;7;0;39188;0;0;0;0;8;0;38855;0;0;0;0;9;0;21299;0;0;0;0
10.09.21;21:05:00;1;288;8759;0;2;0;29102;0;0;0;0;3;0;18760;0;0;0;0;4;0;27762;0;0;0;0;5;0;64449;2;0;0;0;0;0;6;0;48161;2;0;0;0;0;0;7;0;39188;0;0;0;0;8;0;38855;0;0;0;0;9;0;21299;0;0;0;0
10.09.21;21:00:00;1;301;8735;0;2;0;29102;0;0;0;0;3;0;18760;0;0;0;0;4;0;27762;0;0;0;0;5;0;64449;2;0;0;0;0;0;6;0;48161;2;0;0;0;0;0;7;0;39188;0;0;0;0;8;0;38855;0;0;0;0;9;0;21299;0;0;0;0
10.09.21;20:55:00;1;312;8709;0;2;0;29102;0;0;0;0;3;0;18760;0;0;0;0;4;0;27762;0;0;0;0;5;0;64449;2;0;0;0;0;0;6;0;48161;2;0;0;0;0;0;7;0;39188;0;0;0;0;8;0;38855;0;0;0;0;9;0;21299;0;0;0;0
10.09.21;20:50:00;1;248;8684;0;2;0;29102;0;0;0;0;3;0;18760;0;0;0;0;4;0;27762;0;0;0;0;5;0;64449;2;0;0;0;0;0;6;0;48161;2;0;0;0;0;0;7;0;39188;0;0;0;0;8;0;38855;0;0;0;0;9;0;21299;0;0;0;0
10.09.21;20:45:00;1;248;8663;0;2;0;29102;0;0;0;0;3;0;18760;0;0;0;0;4;0;27762;0;0;0;0;5;0;64449;2;0;0;0;0;0;6;0;48161;2;0;0;0;0;0;7;0;39188;0;0;0;0;8;0;38855;0;0;0;0;9;0;21299;0;0;0;0
10.09.21;20:40:00;1;298;8642;0;2;0;29102;0;0;0;0;3;0;18760;0;0;0;0;4;0;27762;0;0;0;0;5;0;64449;2;0;0;0;0;0;6;0;48161;2;0;0;0;0;0;7;0;39188;0;0;0;0;8;0;38855;0;0;0;0;9;0;21299;0;0;0;0
10.09.21;20:35:00;1;268;8617;0;2;0;29102;0;0;0;0;3;0;18760;0;0;0;0;4;0;27762;0;0;0;0;5;0;64449;2;0;0;0;0;0;6;0;48161;2;0;0;0;0;0;7;0;39188;0;0;0;0;8;0;38855;0;0;0;0;9;0;21299;0;0;0;0
10.09.21;20:30:00;1;257;8594;0;2;0;29102;0;0;0;0;3;0;18760;0;0;0;0;4;0;27762;0;0;0;0;5;0;64449;2;0;0;0;0;0;6;0;48161;2;0;0;0;0;0;7;0;39188;0;0;0;0;8;0;38855;0;0;0;0;9;0;21299;0;0;0;0
10.09.21;20:25:00;1;376;8571;0;2;0;29102;0;0;0;0;3;0;18760;0;0;0;0;4;0;27762;0;0;0;0;5;0;64449;2;0;0;0;0;0;6;0;48161;2;0;0;0;0;0;7;0;39188;0;0;0;0;8;0;38855;0;0;0;0;9;0;21299;0;0;0;0
10.09.21;20:20:00;1;310;8541;0;2;0;29102;0;0;0;0;3;0;18760;0;0;0;0;4;0;27762;0;0;0;0;5;0;64449;2;0;0;0;0;0;6;0;48161;2;0;0;0;0;0;7;0;39188;0;0;0;0;8;0;38855;0;0;0;0;9;0;21299;0;0;0;0
10.09.21;20:15:00;1;312;8515;0;2;0;29102;0;0;0;0;3;0;18760;0;0;0;0;4;0;27762;0;0;0;0;5;0;64449;2;0;0;0;0;0;6;0;48161;2;0;0;0;0;0;7;0;39188;0;0;0;0;8;0;38855;0;0;0;0;9;0;21299;0;0;0;0
10.09.21;20:10:00;1;289;8489;0;2;0;29102;0;0;0;0;3;0;18760;0;0;0;0;4;0;27762;0;0;0;0;5;0;64449;2;0;0;0;0;0;6;0;48161;2;0;0;0;0;0;7;0;39188;0;0;0;0;8;0;38855;0;0;0;0;9;0;21299;0;0;0;0
10.09.21;20:05:00;1;290;8465;0;2;0;29102;0;0;0;0;3;0;18760;0;0;0;0;4;0;27762;0;0;0;0;5;0;64449;2;0;0;0;0;0;6;0;48161;2;0;0;0;0;0;7;0;39188;0;0;0;0;8;0;38855;0;0;0;0;9;0;21299;0;0;0;0
10.09.21;20:00:00;1;377;8438;0;2;0;29102;0;0;0;0;3;0;18760;0;0;0;0;4;0;27762;0;0;0;0;5;0;64449;2;0;0;0;0;0;6;0;48161;2;0;0;0;0;0;7;0;39188;0;0;0;0;8;0;38855;0;0;0;0;9;0;21299;0;0;0;0
10.09.21;19:55:00;1;406;8407;0;2;0;29102;0;0;0;0;3;0;18760;0;0;0;0;4;0;27762;0;0;0;0;5;0;64449;2;0;0;0;0;0;6;0;48161;2;0;0;0;0;0;7;0;39188;0;0;0;0;8;0;38855;0;0;0;0;9;0;21299;0;0;0;0
10.09.21;19:50:00;1;341;8373;0;2;0;29102;0;0;71;9;3;0;18760;0;0;200;24;4;0;27762;0;0;17;10;5;0;64449;2;0;0;0;0;0;6;0;48161;2;0;0;0;0;0;7;0;39188;0;0;0;0;8;0;38855;0;0;0;0;9;0;21299;0;0;0;0
10.09.21;19:45:00;1;317;8344;0;2;0;29102;6;0;278;33;3;0;18760;6;0;324;34;4;0;27762;2;0;83;37;5;0;64449;2;0;0;0;0;0;6;0;48161;2;0;0;0;0;0;7;0;39188;0;0;0;0;8;0;38855;0;0;0;0;9;0;21299;0;0;0;0
10.09.21;19:40:00;1;293;8318;0;2;0;29102;6;0;316;33;3;0;18760;6;0;393;35;4;0;27762;1;0;130;38;5;0;64449;2;0;0;233;232;34;6;0;48161;2;3;1;72;71;19;7;0;39188;0;0;179;22;8;0;38855;0;0;180;22;9;0;21299;0;0;233;25
10.09.21;19:35:00;1;294;8293;0;2;0;29102;6;0;341;34;3;0;18760;6;2;417;35;4;0;27762;1;0;169;38;5;0;64449;23;0;0;358;375;42;6;0;48161;26;0;0;453;450;40;7;0;39188;6;0;326;35;8;0;38855;6;0;328;34;9;0;21299;6;0;342;31
10.09.21;19:30:00;1;264;8269;0;2;0;29102;6;0;360;35;3;2;18760;4;7;424;36;4;0;27762;1;0;200;39;5;4;64449;26;0;1;370;564;42;6;0;48161;23;0;0;509;505;40;7;0;39188;6;0;386;35;8;0;38855;6;0;389;34;9;0;21299;6;0;416;32
10.09.21;19:25:00;1;299;8248;0;2;0;29102;6;0;372;36;3;5;18760;3;10;426;36;4;0;27762;1;0;211;39;5;12;64448;26;0;1;387;611;43;6;9;48161;1;0;0;522;512;41;7;0;39188;6;0;418;36;8;0;38855;6;2;408;35;9;0;21299;3;1;435;32
10.09.21;19:20:00;1;255;8223;0;2;3;29102;6;9;381;36;3;2;18759;6;7;474;36;4;0;27762;3;0;200;40;5;86;64446;4;2;16;357;564;44;6;43;48160;1;0;4;527;508;41;7;1;39188;3;11;404;36;8;0;38855;6;2;433;35;9;2;21299;6;3;468;32
10.09.21;19:15:00;1;255;8202;0;2;72;29102;4;106;353;38;3;17;18759;6;31;452;37;4;27;27762;3;27;198;40;5;120;64439;4;21;33;357;564;44;6;87;48157;4;3;18;512;493;42;7;13;39188;6;24;418;37;8;2;38855;3;8;443;36;9;1;21299;6;6;484;33
10.09.21;19:10:00;1;305;8179;0;2;153;29095;4;192;354;38;3;82;18758;4;116;371;38;4;81;27760;3;85;201;41;5;161;64429;4;42;55;357;564;44;6;121;48149;4;15;36;512;493;42;7;55;39187;4;97;391;37;8;52;38855;4;85;371;36;9;2;21299;6;7;501;33
10.09.21;19:05:00;1;302;8153;0;2;252;29083;4;295;359;39;3;153;18751;4;186;368;38;4;153;27753;5;159;213;41;5;198;64415;4;68;69;357;564;44;6;148;48139;4;33;49;512;493;42;7;111;39182;4;153;419;37;8;100;38851;4;138;400;37;9;5;21299;6;11;507;34
10.09.21;19:00:00;1;333;8128;0;2;365;29062;4;410;352;40;3;227;18738;4;266;382;39;4;200;27740;5;208;202;42;5;234;64398;4;83;88;357;564;44;6;175;48126;4;45;65;512;493;42;7;231;39173;4;271;399;38;8;190;38842;4;231;418;37;9;0;21298;6;0;545;34
10.09.21;18:55:00;1;391;8100;0;2;449;29031;4;499;353;41;3;278;18719;4;317;381;39;4;304;27724;5;316;204;42;5;264;64378;4;98;100;357;564;44;6;199;48111;4;56;73;512;493;42;7;331;39154;4;371;410;38;8;248;38827;4;293;440;37;9;60;21298;4;92;460;35
10.09.21;18:50:00;1;345;8067;0;2;558;28994;4;611;354;42;3;357;18696;4;401;392;40;4;436;27698;5;454;220;43;5;294;64356;4;118;112;357;564;44;6;219;48094;4;70;89;512;492;42;7;378;39126;4;416;334;31;8;323;38806;4;367;419;38;9;73;21293;4;105;467;36
10.09.21;18:45:00;1;1059;8038;0;2;689;28948;4;745;351;42;3;413;18666;4;458;384;40;4;526;27662;5;549;219;43;5;330;64331;4;141;134;357;564;45;6;247;48076;4;86;101;512;493;42;7;568;39089;4;623;430;39;8;365;38779;4;414;389;38;9;87;21287;4;118;473;36
10.09.21;18:40:00;1;508;7957;0;2;827;28890;4;892;354;43;3;487;18632;4;534;394;41;4;635;27618;5;661;223;44;5;388;64303;4;172;158;359;564;45;6;287;48055;4;106;125;512;493;43;7;707;39042;4;767;434;39;8;475;38748;4;525;360;38;9;101;21280;4;136;500;37
10.09.21;18:35:00;1;382;7911;0;2;987;28821;4;1056;354;44;3;545;18592;4;596;390;41;4;731;27566;5;762;225;44;5;466;64271;4;214;186;370;593;45;6;338;48031;4;125;152;512;493;43;7;829;38983;4;894;431;39;8;622;38709;4;668;361;39;9;114;21271;4;149;516;37
10.09.21;18:30:00;1;254;7884;0;2;1123;28739;4;1198;352;45;3;615;18546;4;670;401;42;4;827;27504;5;862;225;45;5;555;64231;4;262;221;378;573;45;6;403;48002;4;161;183;512;499;43;7;959;38914;4;1027;439;40;8;757;38657;4;812;362;39;9;117;21262;4;147;398;37
10.09.21;18:25:00;1;277;7863;0;2;1232;28646;4;1313;356;46;3;672;18495;4;727;392;42;4;920;27436;5;958;225;45;5;665;64184;4;311;273;385;618;45;6;474;47968;4;198;218;485;518;43;7;1078;38834;4;1147;446;40;8;897;38594;4;956;379;40;9;181;21252;4;213;356;38
10.09.21;18:20:00;1;262;7839;0;2;1374;28543;4;1462;363;47;3;726;18439;4;781;384;42;4;1034;27359;5;1077;223;45;5;786;64128;4;380;323;386;618;46;6;577;47927;4;242;263;521;524;43;7;1222;38744;4;1299;443;40;8;1078;38519;4;1146;403;40;9;331;21237;4;371;355;39
10.09.21;18:15:00;1;242;7817;0;2;1485;28429;4;1574;352;47;3;776;18378;4;832;382;43;4;1124;27273;5;1171;222;46;5;914;64062;4;447;376;384;624;46;6;668;47878;4;287;305;521;521;43;7;1345;38643;4;1424;444;41;8;1237;38430;4;1309;414;40;9;417;21209;4;477;355;39
10.09.21;18:10:00;1;290;7796;0;2;1593;28305;4;1691;365;48;3;849;18314;4;908;389;43;4;1220;27179;5;1271;225;46;5;1068;63984;4;532;446;383;633;46;6;789;47822;4;343;361;531;519;43;7;1471;38530;4;1556;448;41;8;1400;38327;4;1482;423;41;9;531;21175;4;574;355;40
10.09.21;18:05:00;1;300;7772;0;2;1701;28173;4;1803;361;49;3;894;18243;4;956;393;44;4;1305;27078;5;1359;221;47;5;1207;63895;4;605;505;392;627;46;6;897;47755;4;390;417;534;519;44;7;1590;38409;4;1686;442;41;8;1539;38211;4;1629;435;41;9;609;21131;4;656;354;41
10.09.21;18:00:00;1;241;7749;0;2;1805;28031;4;1910;361;50;3;956;18168;4;1020;388;44;4;1392;26969;5;1450;219;47;5;1368;63792;4;692;575;389;628;46;6;1024;47679;4;456;475;548;528;44;7;1729;38275;4;1820;442;42;8;1705;38082;4;1801;439;42;9;681;21080;4;731;365;41
10.09.21;17:55:00;1;318;7728;0;2;1932;27881;4;2043;363;50;3;1001;18089;4;1066;389;44;4;1479;26853;5;1540;220;47;5;1524;63678;4;781;639;389;644;47;6;1146;47593;4;525;528;551;528;44;7;1842;38132;4;1947;439;42;8;1834;37941;4;1934;437;42;9;766;21024;4;821;381;42
10.09.21;17:50:00;1;386;7701;0;2;2041;27720;4;2159;370;51;3;1077;18005;4;1142;391;45;4;1581;26730;5;1647;219;48;5;1707;63550;4;886;725;388;638;47;6;1280;47496;4;590;594;557;522;44;7;1991;37979;4;2104;438;43;8;1981;37788;4;2085;441;42;9;891;20960;4;951;406;43
10.09.21;17:45:00;1;390;7668;0;2;2144;27550;4;2266;369;52;3;1107;17916;4;1175;395;45;4;1675;26598;5;1745;221;48;5;1887;63406;4;980;809;391;628;47;6;1409;47389;4;653;661;550;516;44;7;2111;37813;4;2226;441;43;8;2094;37623;4;2206;438;43;9;986;20886;4;1053;422;44
10.09.21;17:40:00;1;332;7636;0;2;2232;27371;4;2356;361;52;3;1193;17823;4;1264;400;46;4;1760;26459;5;1833;221;48;5;2066;63247;4;1080;889;393;627;48;6;1547;47270;4;733;721;548;516;44;7;2223;37637;4;2341;438;43;8;2206;37449;4;2327;437;43;9;1097;20803;4;1171;443;44
10.09.21;17:35:00;1;350;7608;0;2;2298;27185;4;2424;356;53;3;1223;17724;4;1296;393;46;4;1822;26312;5;1898;219;49;5;2227;63074;4;1172;956;389;636;48;6;1663;47140;4;795;781;542;515;45;7;2337;37452;4;2458;436;44;8;2314;37265;4;2441;438;44;9;1200;20712;4;1278;462;45
10.09.21;17:30:00;1;334;7579;0;2;2363;26994;4;2492;358;53;3;1239;17622;4;1314;389;47;4;1888;26160;5;1967;219;49;5;2398;62886;4;1266;1039;389;626;48;6;1797;47000;4;851;859;541;521;45;7;2433;37257;4;2560;436;44;8;2410;37072;4;2542;438;44;9;1276;20613;4;1359;479;46
10.09.21;17:25:00;1;357;7551;0;2;2489;26797;4;2628;358;54;3;1359;17519;4;1438;402;47;4;1989;26003;5;2072;219;49;5;2599;62685;4;1369;1125;385;628;48;6;1949;46850;4;928;934;547;521;45;7;2563;37054;4;2693;439;44;8;2546;36872;4;2677;433;44;9;1377;20506;4;1465;475;46
10.09.21;17:20:00;1;368;7522;0;2;2627;26589;4;2768;351;55;3;1462;17405;4;1548;409;48;4;2125;25837;5;2213;219;49;5;2860;62467;4;1523;1234;390;621;49;6;2142;46686;4;1039;1018;546;523;45;7;2712;36844;4;2850;439;45;8;2691;36663;4;2837;433;45;9;1468;20393;4;1560;483;47
10.09.21;17:15:00;1;243;7492;0;2;2764;26371;4;2916;361;55;3;1538;17284;4;1630;413;48;4;2255;25660;5;2349;219;50;5;3118;62226;4;1668;1347;392;637;49;6;2331;46506;4;1147;1099;547;527;45;7;2886;36615;4;3034;428;45;8;2864;36435;4;3015;427;45;9;1565;20268;4;1663;481;47
10.09.21;17:10:00;1;263;7472;0;2;2847;26140;4;3003;355;56;3;1603;17156;4;1694;413;49;4;2339;25472;5;2436;218;50;5;3334;61965;4;1790;1443;391;628;49;6;2496;46310;4;1222;1200;548;527;46;7;3034;36374;4;3189;434;45;8;3003;36196;4;3163;431;45;9;1645;20138;4;1746;478;47
10.09.21;17:05:00;1;244;7450;0;2;2819;25903;4;2977;358;56;3;1614;17022;4;1706;414;49;4;2350;25278;5;2447;219;50;5;3413;61687;4;1845;1479;389;618;49;6;2558;46103;4;1260;1222;543;525;46;7;3064;36121;4;3227;430;46;8;3045;35947;4;3204;430;46;9;1673;20001;4;1773;477;48
10.09.21;17:00:00;1;305;7428;0;2;2871;25669;4;3030;355;57;3;1645;16887;4;1737;410;49;4;2380;25082;5;2479;216;50;5;3571;61401;4;1925;1556;384;619;49;6;2660;45889;4;1307;1280;540;518;46;7;3110;35867;4;3270;426;46;8;3099;35693;4;3259;430;46;9;1699;19862;4;1800;473;48
10.09.21;16:55:00;1;277;7402;0;2;2972;25430;4;3134;351;57;3;1696;16750;4;1789;407;50;4;2468;24884;5;2570;215;50;5;3768;61102;4;2036;1648;389;621;50;6;2806;45667;4;1381;1351;544;514;46;7;3263;35608;4;3425;422;46;8;3246;35435;4;3411;429;46;9;1781;19721;4;1886;471;48
10.09.21;16:50:00;1;370;7378;0;2;3094;25181;4;3267;354;58;3;1768;16609;4;1863;406;50;4;2580;24678;5;2687;212;50;5;4019;60786;4;2178;1757;386;621;50;6;2985;45432;4;1488;1426;536;517;46;7;3391;35335;4;3562;426;47;8;3371;35164;4;3542;422;46;9;1851;19572;4;1960;472;49
10.09.21;16:45:00;1;307;7350;0;2;3170;24924;4;3343;356;58;3;1854;16462;4;1952;416;50;4;2659;24463;5;2769;214;50;5;4218;60450;4;2281;1845;385;618;50;6;3143;45182;4;1572;1510;540;511;46;7;3505;35053;4;3687;425;47;8;3497;34884;4;3673;421;47;9;1922;19418;4;2034;469;49
10.09.21;16:40:00;1;1862;7305;0;2;3234;24660;4;3413;351;58;3;1868;16307;4;1971;417;50;4;2730;24241;5;2843;212;49;5;4414;60097;4;2391;1939;382;619;50;6;3300;44918;4;1639;1598;540;522;47;7;3613;34761;4;3804;420;47;8;3607;34592;4;3791;423;47;9;1980;19260;4;2098;472;49
10.09.21;16:35:00;1;1017;7156;0;2;3209;24389;4;3386;355;58;3;1832;16151;4;1931;409;50;4;2734;24014;5;2847;214;49;5;4484;59728;4;2435;1967;380;621;50;6;3350;44643;4;1662;1629;533;514;47;7;3637;34459;4;3823;419;47;8;3623;34291;4;3811;421;47;9;1993;19093;4;2110;467;50
10.09.21;16:30:00;1;340;7075;0;2;3262;24122;4;3442;354;59;3;1840;15999;4;1937;396;51;4;2779;23786;5;2895;212;49;5;4638;59353;4;2539;2033;382;616;50;6;3445;44363;4;1712;1676;533;509;47;7;3698;34156;4;3897;423;48;8;3702;33989;4;3894;425;48;9;2033;18927;4;2153;471;50
10.09.21;16:25:00;1;342;7047;0;2;3353;23851;4;3540;355;59;3;1967;15846;4;2073;409;51;4;2876;23554;5;2996;212;48;5;4866;58966;4;2655;2137;381;618;51;6;3610;44075;4;1815;1744;529;509;47;7;3804;33851;4;4008;418;48;8;3800;33684;4;3998;421;48;9;2095;18759;4;2214;465;51
10.09.21;16:20:00;1;417;7018;0;2;3407;23571;4;3603;354;59;3;2064;15682;4;2174;414;51;4;2947;23315;5;3069;212;48;5;5054;58558;4;2749;2231;382;614;51;6;3748;43773;4;1887;1820;535;507;47;7;3956;33531;4;4160;419;48;8;3922;33363;4;4130;417;48;9;2163;18583;4;2290;462;51
10.09.21;16:15:00;1;356;6983;0;2;3437;23287;4;3631;355;59;3;2086;15510;4;2197;409;51;4;2972;23069;5;3096;212;48;5;5158;58136;4;2814;2272;377;614;51;6;3833;43460;4;1932;1858;528;505;47;7;4030;33201;4;4233;420;49;8;3983;33037;4;4196;425;49;9;2204;18403;4;2331;457;51
10.09.21;16:10:00;1;345;6954;0;2;3503;23001;4;3696;351;59;3;2119;15336;4;2231;413;51;4;3031;22821;5;3157;209;48;5;5336;57706;4;2918;2351;377;613;50;6;3957;43140;4;1990;1932;527;501;47;7;4116;32867;4;4328;418;49;8;4079;32706;4;4291;418;49;9;2254;18219;4;2382;463;51
10.09.21;16:05:00;1;392;6925;0;2;3513;22708;4;3711;355;59;3;2148;15159;4;2259;409;52;4;3089;22569;5;3217;209;48;5;5506;57259;4;3024;2428;374;612;50;6;4085;42809;4;2066;1986;527;501;48;7;4207;32523;4;4425;415;49;8;4174;32366;4;4392;409;49;9;2310;18031;4;2443;462;52
10.09.21;16:00:00;1;314;6897;0;2;3598;22416;4;3795;352;59;3;2228;14980;4;2348;422;52;4;3162;22312;5;3294;208;49;5;5707;56800;4;3126;2520;372;608;50;6;4239;42467;4;2143;2064;522;503;48;7;4280;32175;4;4499;410;49;8;4260;32020;4;4474;411;49;9;2352;17840;4;2486;460;52
10.09.21;15:55:00;1;727;6871;0;2;3628;22117;4;3836;353;59;3;2269;14795;4;2389;415;51;4;3204;22048;5;3337;207;49;5;5875;56323;4;3239;2589;373;606;50;6;4366;42114;4;2203;2137;520;506;48;7;4347;31817;4;4572;412;49;8;4325;31663;4;4550;406;49;9;2402;17643;4;2535;460;52
10.09.21;15:50:00;1;414;6792;0;2;3626;21814;4;3830;355;59;3;2275;14606;4;2394;412;51;4;3213;21780;5;3347;208;49;5;5926;55832;4;3256;2620;374;600;50;6;4409;41749;4;2231;2161;520;500;48;7;4362;31453;4;4586;405;50;8;4341;31302;4;4564;413;50;9;2409;17444;4;2544;451;52
10.09.21;15:45:00;1;337;6757;0;2;3753;21513;4;3964;353;59;3;2348;14416;4;2473;415;52;4;3343;21514;5;3482;206;49;5;6213;55339;4;3440;2742;373;601;50;6;4628;41382;4;2353;2265;518;504;48;7;4462;31091;4;4687;411;50;8;4439;30941;4;4672;411;50;9;2467;17242;4;2605;454;53
10.09.21;15:40:00;1;357;6727;0;2;3755;21199;4;3968;354;60;3;2358;14221;4;2478;407;52;4;3365;21235;5;3505;206;49;5;6363;54819;4;3528;2805;370;597;50;6;4746;40995;4;2391;2344;516;502;48;7;4580;30718;4;4815;406;50;8;4559;30571;4;4798;409;50;9;2533;17036;4;2672;457;53
10.09.21;15:35:00;1;410;6697;0;2;3787;20886;4;3998;353;60;3;2381;14024;4;2501;409;52;4;3399;20955;5;3541;206;49;5;6489;54288;4;3601;2866;369;592;50;6;4850;40598;4;2464;2384;513;500;48;7;4646;30336;4;4884;404;50;8;4628;30191;4;4869;408;50;9;2573;16825;4;2713;455;53
10.09.21;15:30:00;1;410;6663;0;2;3855;20570;4;4064;352;60;3;2445;13826;4;2571;419;52;4;3449;20671;5;3593;207;50;5;6643;53746;4;3677;2945;369;590;49;6;4955;40193;4;2506;2445;511;500;48;7;4700;29949;4;4937;406;50;8;4677;29805;4;4919;403;50;9;2604;16611;4;2750;453;53
10.09.21;15:25:00;1;431;6629;0;2;3871;20249;4;4083;356;60;3;2482;13622;4;2607;422;52;4;3493;20384;5;3639;207;50;5;6796;53192;4;3749;3024;369;593;49;6;5053;39779;4;2583;2468;518;494;48;7;4754;29557;4;4993;407;50;8;4736;29416;4;4978;403;50;9;2634;16394;4;2778;453;53
10.09.21;15:20:00;1;795;6596;0;2;3894;19926;4;4110;352;60;3;2491;13415;4;2617;422;52;4;3528;20092;5;3675;204;50;5;6899;52625;4;3823;3065;369;592;49;6;5128;39358;4;2614;2513;512;501;49;7;4797;29161;4;5045;404;50;8;4779;29020;4;5021;411;50;9;2655;16174;4;2798;449;53
10.09.21;15:15:00;1;2512;6502;0;2;3900;19602;4;4118;353;60;3;2502;13208;4;2626;420;53;4;3548;19798;5;3696;208;50;5;7003;52049;4;3883;3109;370;586;49;6;5214;38930;4;2655;2566;519;500;49;7;4851;28761;4;5102;404;50;8;4831;28623;4;5080;409;50;9;2685;15953;4;2832;456;54
10.09.21;15:10:00;1;2480;6293;0;2;3895;19277;4;4112;355;60;3;2512;12999;4;2639;418;53;4;3565;19504;5;3713;206;50;5;7128;51464;4;3961;3164;369;587;49;6;5299;38494;4;2689;2620;516;494;49;7;4915;28361;4;5173;406;50;8;4903;28223;4;5152;407;50;9;2725;15731;4;2874;453;54